Theta_e
349 351 354 353 352 360 360 362 366 368 364 335 326 336 338 349 350 347 349 348 351 348 348 350 354 354 357 359 358 359 356 357 355 352 353 356 351 352 353 352 354 353 355 355 355 355 354 355 355 355 354 354 355 355 355 355 353 352 352 351 352 352 352 351 350 349 348 348 348 348 347 347 347 348 348 347 346 342 341 340 340 339 339 339 337 339 340 340 342 344 344 346 345 344 344 344 346
348 351 354 356 355 364 367 365 362 352 340 325 328 338 338 349 348 348 350 347 350 346 347 349 351 353 353 354 352 356 356 356 356 355 353 352 351 353 353 354 354 352 354 355 354 354 353 353 353 354 354 354 355 353 353 352 352 353 351 350 349 348 348 348 348 347 346 347 347 346 346 347 348 348 350 352 349 342 340 340 339 339 339 339 339 339 340 342 343 344 344 344 345 345 346 346 346
350 354 357 361 362 365 374 373 353 332 325 324 329 340 343 346 347 351 349 346 348 345 348 346 347 351 352 356 354 357 357 354 353 353 352 352 352 353 353 353 351 350 353 354 353 354 353 351 351 353 353 353 352 351 351 350 352 352 351 349 347 347 347 347 347 347 347 347 347 347 346 346 347 347 349 350 346 342 341 340 340 340 339 339 339 339 342 344 344 344 344 343 343 344 346 347 347
348 355 357 363 369 365 376 377 356 330 325 325 326 339 344 344 348 347 346 346 346 345 346 344 347 348 353 358 355 356 357 355 353 353 353 352 351 352 353 352 352 351 353 354 352 353 353 352 351 352 352 351 351 351 351 351 352 352 351 350 348 348 347 348 348 348 348 348 349 349 348 346 347 348 349 348 345 344 342 341 340 340 340 340 341 343 344 344 343 343 343 343 343 343 345 346 346
348 355 355 361 373 369 378 372 349 333 328 329 328 337 338 339 342 341 344 345 345 346 344 343 345 345 350 352 352 357 357 354 354 353 353 351 351 352 351 353 354 353 354 353 352 351 352 354 353 352 352 351 352 351 352 351 350 349 348 348 348 348 348 349 349 350 350 348 348 348 349 349 348 349 349 348 347 345 343 342 341 341 342 342 344 346 346 346 344 343 343 343 344 345 347 348 348
351 355 353 361 369 370 377 349 330 330 334 338 333 338 340 337 340 341 344 345 346 346 344 346 346 347 349 349 349 354 355 354 355 353 353 352 352 351 351 353 354 354 355 353 351 350 351 353 353 352 351 350 351 351 351 349 347 346 345 346 346 346 348 349 349 349 350 348 347 347 349 348 346 347 347 347 347 345 343 342 340 341 341 342 344 345 346 347 345 344 343 345 346 348 349 349 349
354 357 358 360 361 374 369 335 327 332 334 340 337 340 341 337 339 338 340 343 346 345 345 347 346 349 350 350 351 351 353 354 354 353 355 354 353 352 353 354 354 354 354 353 350 349 350 352 352 350 350 350 350 350 350 348 346 345 345 345 345 345 348 349 347 347 348 348 349 348 347 346 345 346 345 345 345 345 344 342 340 340 340 341 342 342 343 343 343 344 344 348 350 349 350 349 350
354 362 362 356 360 370 353 329 334 339 335 340 337 339 338 335 336 334 338 342 346 346 345 346 346 351 350 349 353 352 352 353 354 356 356 355 354 354 354 355 357 355 353 352 350 350 350 351 351 349 349 350 350 350 349 348 346 345 345 346 347 347 347 347 345 344 345 346 349 350 348 346 346 348 349 348 346 345 345 342 340 339 340 340 340 340 340 341 343 345 348 350 351 349 348 349 350
353 362 361 355 358 351 339 334 337 341 341 339 337 339 336 334 335 335 340 342 345 345 346 348 348 352 352 353 354 353 353 354 356 358 357 355 355 355 355 357 357 356 352 351 350 350 350 350 349 349 350 350 351 350 349 350 347 347 348 348 348 348 346 345 344 344 344 346 350 352 350 347 348 351 351 348 344 343 341 340 339 339 339 338 337 338 338 341 342 344 347 347 346 346 345 346 348
356 361 360 358 355 337 335 342 337 338 341 337 339 339 337 336 337 338 340 343 344 346 348 348 349 350 351 355 355 353 354 355 357 358 357 356 356 355 355 356 353 352 351 351 350 349 349 350 350 350 351 351 351 350 350 351 348 349 352 350 349 349 348 346 345 345 346 347 349 349 347 347 347 347 346 344 341 339 338 338 338 337 337 337 337 337 338 340 341 342 343 342 342 342 342 342 343
367 357 354 352 343 332 331 336 335 340 341 339 341 338 340 339 340 341 341 345 346 348 348 349 350 349 351 354 353 354 355 356 357 358 357 358 358 355 354 354 350 349 349 349 350 349 349 350 351 351 352 352 351 349 348 349 348 350 353 351 349 349 348 346 345 345 346 346 346 346 346 345 343 342 341 340 339 338 338 338 337 337 337 337 338 338 338 339 339 340 341 342 341 341 341 341 342
366 352 354 346 336 336 335 336 337 343 343 339 339 338 341 338 339 340 341 343 345 349 349 350 350 349 352 353 351 353 355 356 358 357 357 358 359 356 355 355 351 348 349 349 349 349 350 350 350 350 351 350 349 349 348 348 348 349 352 351 347 346 347 346 345 344 344 344 343 343 343 341 339 338 338 337 337 337 337 337 336 337 338 339 340 339 338 340 340 341 341 342 342 342 343 342 342
361 352 355 347 341 345 345 348 348 345 344 342 338 337 339 338 339 339 341 344 346 351 350 349 348 349 352 352 350 351 353 355 356 358 358 358 358 358 357 357 354 351 349 349 350 351 352 351 349 349 349 348 348 349 349 347 347 349 351 350 346 345 346 345 346 348 349 347 345 342 340 339 338 337 337 337 337 336 336 337 337 339 341 343 344 343 342 343 343 344 343 342 344 346 346 345 342
357 352 362 360 352 345 345 350 349 341 340 343 341 338 339 340 341 341 343 345 346 349 349 348 346 350 351 351 351 350 352 353 355 357 358 358 358 358 358 359 358 355 352 350 351 352 353 351 350 349 349 349 349 350 349 347 347 348 350 348 345 345 345 345 347 351 353 352 349 346 343 340 338 337 336 336 336 336 337 338 338 340 343 344 346 346 346 346 347 347 344 342 344 346 347 347 344
349 349 364 367 349 338 341 344 343 341 340 344 342 340 341 341 342 341 341 343 345 346 347 347 346 350 350 351 352 350 352 353 354 355 355 357 358 358 358 358 359 358 356 354 354 354 355 353 352 351 350 350 350 352 351 349 350 349 346 345 345 345 345 347 348 349 350 349 347 345 343 340 337 336 336 337 338 340 342 343 341 342 344 344 345 346 347 349 350 349 345 345 345 346 347 347 347
344 346 356 355 340 333 338 344 344 341 342 345 342 340 342 341 342 341 341 342 344 344 347 347 344 348 348 348 351 349 351 355 355 355 356 357 357 357 358 358 359 360 359 356 356 358 358 354 352 351 351 351 351 352 351 350 350 347 345 345 345 345 346 348 349 347 346 346 345 343 340 338 336 337 340 343 343 345 348 347 346 347 347 345 345 346 347 347 348 348 349 349 348 348 348 348 349
340 344 347 341 335 332 337 346 350 343 343 346 343 342 342 342 342 342 343 342 343 343 344 346 344 346 347 348 350 349 353 356 356 356 356 356 357 357 357 358 358 360 358 354 357 360 359 353 350 351 350 350 350 349 349 349 347 346 346 346 345 346 346 347 348 346 345 346 344 341 338 337 338 341 344 346 346 347 346 347 348 348 348 347 346 346 346 346 348 350 351 351 350 351 352 351 352
340 344 343 333 333 336 340 346 351 347 344 346 344 343 343 343 343 342 344 345 345 344 343 345 346 347 348 349 349 352 356 356 356 355 355 356 356 357 356 357 358 359 359 355 358 360 358 353 350 350 349 348 348 348 349 348 347 347 347 346 346 346 344 344 344 343 343 344 343 340 337 337 342 345 346 347 347 347 346 347 349 348 348 347 347 348 348 350 351 351 350 350 352 352 352 351 351
341 345 341 335 336 340 342 343 346 345 344 346 345 344 343 344 345 344 346 348 346 345 346 348 349 349 348 349 350 354 357 356 355 354 354 355 355 356 356 357 358 358 359 359 360 359 357 355 353 351 350 349 349 351 351 349 348 348 349 348 346 344 342 342 342 342 343 344 344 340 338 341 347 348 348 350 348 349 349 348 348 347 346 344 345 348 349 350 351 350 349 349 351 350 348 347 347
339 340 337 335 337 340 343 345 343 343 345 346 345 344 345 344 345 346 348 349 347 349 351 352 351 350 348 350 350 352 356 356 355 354 354 354 354 355 356 357 358 359 360 360 361 358 355 356 354 352 350 350 353 355 352 348 347 348 349 347 345 343 342 343 343 345 347 347 346 343 344 348 350 350 350 352 350 350 350 348 347 344 343 342 342 345 346 347 348 348 348 348 348 347 346 342 343
336 335 335 336 338 339 342 344 343 343 343 345 346 345 345 345 345 345 349 353 351 351 351 351 350 349 349 350 351 352 354 356 357 355 354 354 352 353 355 356 357 357 359 359 359 357 354 352 353 354 352 352 355 356 354 349 348 348 348 347 346 344 342 344 346 348 351 351 350 347 349 352 352 351 351 351 351 350 349 347 346 343 343 343 344 344 344 345 346 347 346 346 346 344 343 342 343
332 333 335 337 338 340 341 342 343 343 343 345 344 344 345 345 347 347 352 357 353 351 350 350 349 349 349 348 349 350 351 353 354 354 353 353 350 352 354 355 355 355 357 359 358 357 355 352 352 357 357 355 356 356 355 352 350 349 348 348 348 348 346 347 349 350 351 352 352 351 352 355 354 352 351 351 350 348 346 345 345 344 344 344 345 345 345 346 347 348 346 344 344 343 343 343 345
332 334 337 339 339 340 339 340 342 341 342 344 343 345 346 346 348 347 350 354 350 349 349 349 348 348 348 347 348 349 350 350 351 352 352 352 350 350 352 352 353 354 356 357 358 357 356 355 353 357 358 354 355 356 355 355 351 349 350 350 351 353 351 349 351 351 350 351 352 352 353 355 355 352 351 350 349 347 347 347 346 344 343 343 344 344 345 346 348 350 348 345 344 345 346 348 349
333 333 336 338 338 339 339 339 341 341 342 344 345 346 349 350 350 349 348 350 348 349 349 348 348 348 347 347 347 348 348 348 350 349 349 349 348 348 350 352 351 352 354 356 358 358 356 356 355 354 355 354 355 355 355 357 353 350 352 354 355 356 353 352 353 353 352 352 350 351 352 353 353 352 351 349 347 347 348 349 348 345 343 343 344 345 345 347 350 349 348 346 345 346 347 350 351
335 334 335 336 338 339 339 339 340 341 342 344 347 348 349 351 353 351 349 350 349 350 349 348 348 346 346 347 347 351 351 348 347 348 348 349 349 348 349 351 351 350 353 355 356 357 356 356 356 355 355 356 355 354 355 356 353 351 353 355 356 356 355 354 355 354 353 352 352 351 352 353 352 351 349 346 345 346 348 350 351 350 346 343 344 346 348 350 350 348 346 346 344 343 345 347 347
335 335 335 335 337 338 338 339 340 341 342 343 346 348 349 349 351 353 351 350 350 350 349 348 349 347 347 347 349 354 353 349 347 347 348 348 350 349 349 351 351 350 352 354 355 355 357 357 358 358 357 357 355 355 355 354 353 353 353 353 353 355 354 352 352 352 350 349 352 352 351 352 352 350 348 346 346 347 349 351 352 352 349 346 346 347 350 351 349 347 346 345 344 343 344 345 345
335 335 336 335 337 338 336 337 338 340 341 343 345 347 349 348 351 355 352 350 350 350 350 349 349 348 347 348 351 352 349 348 347 348 349 349 351 351 350 351 351 351 352 354 355 356 357 358 359 359 358 358 356 356 354 352 353 354 354 354 353 355 352 349 347 347 348 349 351 352 351 351 351 349 348 347 347 348 349 350 351 351 350 350 348 348 350 350 347 345 344 343 343 345 344 345 346
334 335 336 336 337 336 336 337 338 340 341 343 345 346 347 346 350 355 352 349 350 350 351 350 350 351 351 351 354 354 349 349 348 348 349 350 351 352 351 352 352 352 353 354 355 356 357 358 359 358 358 358 356 356 355 352 353 354 355 355 355 355 351 349 349 347 349 352 352 352 352 352 352 351 349 349 348 349 348 349 350 349 348 348 348 348 349 348 346 343 342 341 342 345 345 347 348
336 337 337 337 337 336 336 337 337 339 341 342 344 343 346 349 348 351 352 350 351 350 351 351 350 353 354 353 354 356 353 350 349 349 350 351 352 353 351 351 352 352 352 353 355 356 356 357 358 358 358 358 356 355 354 353 353 353 354 354 355 356 353 352 353 351 351 353 352 352 351 352 353 351 351 351 350 349 348 348 348 347 346 346 347 346 346 347 346 344 344 343 341 341 341 344 348
336 337 337 337 336 334 337 338 338 340 341 342 343 339 342 350 347 347 350 349 350 351 351 351 350 351 354 354 353 357 354 350 350 349 349 352 353 353 352 350 351 352 351 353 354 355 355 355 357 358 357 356 355 353 353 354 353 352 352 353 353 354 354 352 353 354 354 353 353 352 352 353 353 352 352 351 351 349 349 348 347 347 348 349 349 347 345 346 345 345 347 345 341 340 340 341 344
338 335 335 338 328 329 340 339 338 341 341 342 343 335 341 351 348 346 347 347 349 351 351 352 351 351 352 355 355 359 357 350 349 351 351 352 352 353 353 352 352 352 352 353 354 353 354 355 356 357 357 355 355 353 353 354 354 352 351 351 351 352 354 356 357 357 354 352 352 354 354 355 354 352 351 352 352 352 351 350 349 349 349 349 349 347 345 344 345 347 348 345 341 341 341 341 342
339 331 325 332 326 328 342 340 339 341 340 341 343 336 342 351 349 347 347 346 347 348 349 351 351 352 352 355 357 358 358 351 349 351 353 352 352 353 353 352 352 352 352 353 353 353 354 355 355 356 356 357 356 354 355 354 354 353 352 350 351 353 355 356 357 356 353 351 350 352 354 354 353 351 350 351 352 353 353 352 351 350 349 348 348 348 346 346 348 348 346 343 342 342 342 342 343
337 334 321 324 325 328 338 340 340 341 340 341 343 340 344 349 349 347 347 345 345 346 347 349 351 352 352 353 354 355 357 355 353 351 352 352 351 352 353 352 351 352 352 351 352 354 355 355 356 357 356 356 357 355 355 354 354 354 353 352 353 355 355 355 356 355 354 352 350 349 350 351 350 349 350 349 349 351 354 354 353 351 351 351 350 349 348 348 347 344 343 344 343 342 341 342 343
329 334 326 325 328 327 329 336 340 340 341 342 343 345 345 347 349 347 346 346 346 347 346 348 350 352 352 351 353 356 356 357 357 353 351 351 351 351 351 352 351 352 352 350 352 352 354 356 355 356 357 356 356 357 356 355 355 355 355 355 355 355 354 354 353 354 354 353 350 349 349 350 350 351 350 348 348 350 352 352 352 352 352 352 350 348 346 345 344 343 344 344 343 342 343 343 344
323 326 324 325 329 329 328 333 339 340 340 340 342 345 346 347 349 348 346 346 346 349 349 349 351 352 351 352 356 358 356 357 357 353 351 351 351 350 350 352 353 354 354 352 353 353 354 358 357 357 359 358 356 357 359 357 356 357 356 355 354 352 351 351 351 351 352 352 352 351 351 352 352 352 350 347 347 350 351 351 351 352 351 351 350 348 346 345 345 345 345 343 342 343 344 344 344
330 330 328 324 325 328 334 337 338 339 339 339 342 343 346 348 348 348 347 346 346 350 351 351 352 352 351 354 357 357 356 357 356 352 353 355 354 353 352 354 355 356 356 355 355 358 359 360 358 357 358 358 358 359 360 357 356 357 356 354 354 352 351 352 352 352 352 351 352 352 352 351 351 351 348 347 348 350 351 351 352 353 352 351 351 350 349 347 346 346 345 343 343 343 342 342 343
336 334 330 329 326 326 337 340 337 339 337 338 345 345 346 348 346 348 347 346 348 349 350 351 353 354 353 355 355 355 357 357 355 354 355 357 358 356 356 358 358 358 357 356 356 360 363 361 358 357 356 357 358 358 359 357 356 356 355 354 355 354 353 353 354 353 352 352 352 351 350 349 347 346 346 346 347 349 350 351 352 353 352 352 352 351 350 349 348 347 346 345 345 344 342 342 343
335 332 327 326 326 328 338 341 337 338 337 338 347 345 344 347 344 345 345 345 347 347 348 351 353 356 356 357 356 355 357 356 356 357 355 357 359 358 357 359 360 360 358 357 357 358 361 361 358 356 356 356 356 357 358 357 356 355 353 354 353 352 354 353 351 350 350 352 352 350 349 349 347 346 347 347 349 350 349 349 350 350 352 352 352 352 350 348 347 347 347 346 346 345 344 343 343
332 331 326 322 327 331 335 339 337 336 335 338 346 344 343 346 344 344 345 345 346 345 348 350 352 356 358 358 357 356 357 358 358 358 357 356 359 359 359 358 359 360 360 358 358 358 360 360 358 357 357 356 355 356 356 354 353 353 351 352 352 352 353 349 345 346 347 349 351 349 350 351 349 347 347 347 347 347 347 348 349 349 349 350 350 350 348 346 345 347 348 347 346 346 345 344 343
330 329 322 319 328 328 324 332 339 337 336 339 344 343 344 348 346 345 344 344 345 345 346 348 350 355 357 356 357 356 357 359 358 357 359 357 357 359 359 358 357 359 360 359 360 361 360 360 359 359 358 355 354 354 353 352 352 352 350 350 352 353 352 346 344 347 347 347 349 348 347 349 347 345 344 343 342 341 342 344 345 345 346 346 345 347 348 346 344 345 347 347 346 345 345 344 342
329 330 324 321 328 329 326 333 338 335 336 340 342 338 340 348 350 347 345 344 345 345 346 348 350 353 354 354 355 356 357 358 358 358 359 359 357 358 358 358 359 359 360 360 361 362 360 359 359 358 356 353 351 350 351 353 354 353 352 352 353 353 352 349 345 345 343 342 343 342 340 341 341 341 340 339 339 339 340 340 341 342 342 342 341 344 345 344 345 345 346 346 345 344 344 343 342
323 329 330 329 330 332 333 336 333 326 326 336 340 330 333 346 349 350 348 346 346 347 348 349 351 352 352 353 353 355 357 357 358 360 359 359 356 356 356 357 359 359 359 359 360 360 359 358 358 357 354 352 352 352 353 356 354 351 349 350 350 349 348 347 342 339 338 337 337 337 337 339 339 339 339 337 337 339 340 339 340 341 341 341 341 342 343 343 344 345 345 345 344 343 342 343 342
316 327 334 333 332 331 332 332 327 319 321 336 339 332 333 341 342 351 356 356 355 350 348 349 351 351 350 351 351 353 357 357 358 361 360 358 355 354 356 357 359 359 359 358 358 359 359 358 357 355 354 354 355 354 353 353 351 345 342 342 341 339 340 341 338 337 336 334 336 336 336 336 336 336 336 336 337 340 340 340 340 340 340 340 341 342 342 343 343 342 342 342 342 342 342 342 342
318 331 334 333 332 329 331 331 325 324 328 334 335 336 337 334 337 354 365 365 366 360 355 352 350 350 350 349 349 353 357 357 357 359 360 357 354 354 356 358 358 357 358 358 359 360 358 358 358 355 354 356 356 352 347 346 344 340 338 338 337 335 336 336 334 334 334 334 337 337 334 334 336 335 335 337 339 340 339 339 339 339 339 340 340 340 341 341 340 340 341 341 340 341 342 343 342
325 332 331 333 332 330 334 330 325 327 325 322 326 335 339 335 339 356 366 359 361 364 360 357 352 349 349 348 348 352 357 357 353 356 357 354 353 355 356 358 357 357 357 357 359 359 357 358 358 357 355 354 352 347 344 343 340 339 338 338 337 335 335 335 334 335 337 338 338 337 336 338 340 339 338 338 339 338 338 339 339 338 338 338 339 339 339 339 339 339 340 341 340 340 341 342 343
330 331 331 332 332 331 332 331 327 325 323 320 322 324 330 334 339 349 356 351 351 357 357 356 355 350 348 349 347 350 356 357 353 354 355 352 354 356 357 357 356 357 357 356 358 358 358 358 356 356 355 351 349 345 343 342 339 339 338 336 337 336 335 335 334 334 336 338 336 336 338 341 341 339 337 337 338 338 338 339 338 337 338 338 338 336 336 337 338 338 339 339 339 339 340 341 343
331 331 331 328 332 338 338 341 333 320 321 325 323 318 321 328 336 343 348 351 350 353 354 355 355 350 349 349 346 349 354 356 354 353 352 352 354 356 357 356 355 356 356 356 358 358 359 357 356 355 352 349 348 345 343 342 339 338 338 336 337 339 337 335 334 334 336 337 338 339 340 340 338 337 336 336 338 338 339 338 337 336 337 338 337 335 335 336 337 337 337 337 337 338 340 340 342
331 332 328 322 327 332 329 333 329 317 319 325 322 320 318 320 334 347 350 353 351 352 353 352 352 350 350 350 347 348 351 352 352 351 352 355 355 356 357 356 354 355 356 356 357 358 358 357 355 354 350 348 347 344 344 343 340 338 339 338 337 337 335 334 334 335 336 338 338 339 338 337 337 337 336 337 338 339 338 337 336 336 337 337 336 336 336 336 337 337 336 336 336 337 339 340 340
331 328 322 317 318 320 318 319 321 319 322 325 321 321 318 320 337 351 353 353 350 351 350 349 350 350 351 352 350 349 349 349 349 349 352 355 356 356 356 355 353 354 355 355 357 357 357 357 354 351 350 348 345 344 344 343 341 340 339 337 337 335 333 333 334 334 335 337 337 338 336 335 336 335 336 337 338 337 335 335 336 337 337 336 336 336 336 336 337 337 336 336 336 337 339 339 338
328 323 317 318 319 317 317 317 317 320 321 322 321 321 318 321 339 352 353 351 349 350 348 348 350 351 352 352 350 348 349 349 348 348 352 356 356 355 355 355 353 354 355 355 356 358 357 355 353 351 349 347 344 344 344 343 342 340 337 336 337 335 334 334 334 334 336 337 337 337 335 334 335 334 335 337 337 335 335 336 336 335 335 335 336 336 335 336 337 337 337 336 336 337 338 339 337
328 328 326 323 321 318 319 319 317 319 319 318 320 320 316 320 339 354 351 349 350 349 348 349 350 351 350 350 350 349 348 348 348 348 352 355 354 353 354 353 353 354 354 355 356 357 357 354 352 351 348 346 345 345 344 344 342 339 337 337 337 335 335 335 334 334 336 336 335 335 334 334 334 334 335 336 334 334 335 335 334 334 334 334 334 334 335 336 336 337 338 337 337 337 338 338 337
327 331 324 321 326 325 319 320 319 317 318 319 318 320 325 334 351 357 348 347 350 347 349 352 352 351 349 349 351 350 349 348 347 348 353 354 352 352 353 351 352 354 353 354 356 357 356 354 352 350 347 345 345 344 344 343 342 340 338 336 336 336 334 335 335 334 333 333 334 335 333 333 333 334 335 335 334 334 335 334 333 333 334 334 334 334 334 335 336 337 337 336 336 336 337 337 337
327 326 320 324 334 330 319 317 319 316 317 319 316 318 327 334 343 350 348 347 348 348 349 349 350 351 350 352 353 350 349 349 349 349 353 355 351 351 353 350 351 354 352 354 357 356 355 354 351 349 347 345 345 344 344 343 341 341 339 337 336 336 335 334 334 333 334 334 334 334 333 332 334 335 335 335 334 334 333 333 333 333 334 333 333 333 333 334 335 336 336 336 335 336 337 336 335
325 319 323 332 329 329 328 320 317 317 317 318 315 315 320 321 327 343 350 348 349 348 348 347 348 350 349 351 353 352 348 349 350 351 352 354 352 350 353 351 351 354 353 354 356 356 355 353 351 348 346 345 344 344 344 343 342 342 340 338 336 337 337 336 335 335 336 336 334 333 333 334 335 336 336 334 334 333 333 334 334 334 334 333 334 333 333 333 335 336 336 335 336 336 337 336 335
330 324 329 330 319 319 323 319 318 320 318 318 318 317 318 319 325 338 345 346 348 346 347 346 345 349 350 349 352 353 349 349 350 351 352 354 352 351 354 354 353 354 354 355 355 355 353 352 350 348 346 345 344 344 344 343 343 342 339 338 337 337 337 337 337 337 336 335 333 333 334 335 336 336 335 335 335 334 334 334 333 333 333 333 333 333 333 333 334 334 334 335 336 337 337 336 335
331 330 331 329 322 320 322 320 321 322 319 320 320 317 320 329 334 338 342 345 345 346 350 348 342 346 348 346 351 353 353 354 350 348 353 354 352 353 355 355 355 354 355 356 354 353 353 351 350 348 346 345 344 343 342 342 342 341 339 339 339 338 337 336 336 336 335 334 334 333 334 334 334 335 336 336 335 334 333 333 334 334 333 333 333 333 334 333 333 334 333 334 335 336 336 336 335
325 322 322 322 322 323 323 322 320 321 320 320 320 319 324 340 346 345 348 347 345 349 352 349 344 344 345 346 352 355 358 363 355 349 352 353 353 355 356 355 354 354 356 356 353 353 352 350 349 348 347 345 345 344 342 341 342 340 340 341 340 339 337 336 335 335 336 335 334 334 334 334 334 335 335 334 334 333 332 332 333 334 333 333 333 333 333 333 333 333 333 334 334 334 335 336 335
327 324 321 321 323 321 318 320 319 318 319 321 323 320 324 343 351 349 349 344 342 349 351 347 344 342 346 353 356 355 359 364 356 350 352 354 355 356 356 355 354 354 355 355 353 352 351 351 350 349 348 346 345 345 342 341 342 341 341 341 340 339 338 336 336 336 336 335 334 335 334 334 334 334 334 335 334 334 334 333 333 333 332 331 331 331 332 332 333 333 332 332 333 334 334 335 334
Wind_Speed
11 10 11 12 13 10 5 3 0 1 1 1 4 5 6 9 8 9 10 8 5 8 11 12 12 11 10 10 12 14 12 4 4 4 4 7 17 19 18 20 18 18 19 19 20 22 24 26 28 27 26 26 25 24 25 25 26 26 26 25 25 25 25 25 24 23 22 20 20 18 17 17 16 16 15 15 14 14 14 13 12 12 12 12 11 11 10 10 10 10 10 11 11 11 10 9 9
9 10 11 12 13 9 2 2 0 2 2 4 5 5 7 8 8 10 10 8 7 10 13 14 15 16 16 12 13 19 15 10 12 8 6 18 22 19 22 21 20 21 20 21 22 23 25 26 28 27 25 25 25 25 26 26 25 24 25 25 25 25 25 24 24 23 21 20 19 19 18 17 17 16 16 16 14 13 12 12 11 11 11 11 11 10 10 10 10 10 10 11 11 11 9 9 8
8 11 14 14 11 7 0 2 1 1 5 5 5 5 7 8 9 11 10 10 11 13 13 14 16 13 16 16 15 16 10 10 17 11 8 20 17 17 24 22 22 23 21 23 24 24 25 25 26 26 24 24 25 26 26 25 24 23 24 24 24 24 24 23 23 23 21 20 20 19 18 18 17 16 16 15 14 13 12 12 11 11 11 11 11 10 10 10 10 10 10 10 10 10 9 9 8
8 10 14 14 6 5 1 1 3 3 5 4 4 5 7 8 10 11 10 11 13 13 10 13 13 11 17 19 12 13 11 8 14 12 8 16 18 23 27 24 23 22 21 22 24 25 25 25 24 24 23 24 25 24 24 24 23 22 23 23 23 23 23 22 21 21 20 19 19 19 19 17 17 16 15 14 14 13 12 12 12 12 11 11 11 11 10 10 10 10 10 9 9 9 9 8 7
7 6 10 10 2 2 2 1 1 5 4 3 4 6 8 10 10 10 11 13 13 12 11 10 10 12 15 13 8 8 11 11 13 14 14 19 25 28 27 25 24 22 21 21 25 26 25 23 22 23 22 23 23 23 22 22 22 22 22 22 21 21 21 20 20 19 19 19 18 17 18 17 17 16 15 14 13 12 12 12 12 12 12 12 11 11 10 10 10 9 9 9 9 9 9 8 7
8 7 8 8 1 1 0 0 4 5 4 5 5 7 9 10 11 12 13 15 15 15 14 12 12 13 11 9 8 8 12 14 14 15 20 24 28 28 27 26 25 25 23 21 24 25 24 22 21 22 22 22 22 21 21 21 22 22 22 21 21 21 20 19 18 18 18 18 17 16 17 16 16 15 14 13 12 12 12 11 11 11 11 11 11 10 9 9 8 8 9 8 8 8 7 7 7
7 4 4 3 0 1 1 1 5 4 6 8 7 9 11 11 11 13 14 13 14 14 14 12 13 13 10 9 8 12 19 19 18 19 24 28 30 29 29 29 28 27 25 23 24 24 24 22 21 21 22 22 21 20 21 21 21 21 21 21 20 19 19 18 18 18 18 17 16 16 16 15 14 14 13 12 11 11 11 10 10 10 10 10 9 8 8 7 7 7 8 7 7 6 6 7 7
8 2 1 2 1 0 1 3 6 3 6 8 8 10 11 12 10 11 13 11 11 11 13 13 14 14 13 12 9 14 22 22 25 28 30 33 32 31 31 31 29 27 26 26 25 23 23 21 21 20 21 20 19 19 19 20 20 20 19 19 19 18 17 17 17 17 17 16 16 16 15 14 13 13 12 12 10 10 9 9 8 8 7 7 7 6 6 6 6 6 6 6 5 6 7 7 8
7 2 2 2 1 1 3 4 5 4 6 9 9 10 11 11 10 12 13 12 12 12 15 14 13 15 15 16 12 13 20 26 31 31 32 33 32 32 32 30 29 29 28 27 26 24 23 21 20 20 19 19 18 18 17 18 18 18 18 17 17 16 15 16 16 16 15 15 15 15 13 13 13 12 11 10 9 8 7 6 6 5 5 5 5 5 5 5 5 5 4 4 5 5 6 6 7
1 2 2 1 2 5 3 2 3 5 6 8 8 10 10 11 11 12 13 13 13 13 16 15 14 16 16 16 12 11 21 29 31 28 29 30 29 31 31 29 29 30 30 29 27 25 23 21 20 19 19 18 17 17 16 16 17 18 16 16 15 15 14 15 15 14 14 14 13 13 12 11 11 10 9 8 7 6 6 5 5 4 4 4 5 4 4 4 3 3 3 3 4 3 4 4 5
2 1 2 3 4 4 2 1 3 5 7 8 9 10 10 12 13 12 14 15 14 16 17 14 14 16 16 14 9 16 27 29 28 27 28 27 27 30 30 29 29 29 30 29 27 25 23 21 19 19 18 18 17 17 17 16 16 17 16 15 14 13 13 14 13 13 13 12 12 11 10 10 9 8 8 7 6 5 4 4 3 3 3 3 4 3 4 3 3 3 3 3 3 3 3 3 3
2 3 3 4 3 3 2 3 3 5 6 7 9 10 10 12 12 12 13 14 14 15 14 11 12 13 14 12 9 21 30 27 27 28 27 27 26 28 28 27 27 28 28 28 27 25 23 21 20 19 18 18 18 17 17 16 16 16 15 14 13 12 13 13 12 12 12 11 10 9 9 8 7 7 6 5 5 4 4 3 2 2 2 3 3 3 4 4 4 4 4 4 4 4 4 3 3
1 1 3 3 2 4 4 2 1 3 4 4 7 9 10 11 12 12 12 14 14 14 14 14 12 12 12 11 11 19 24 26 29 29 27 27 26 27 26 26 26 27 27 27 26 25 23 22 20 19 19 18 18 17 17 16 15 15 15 14 13 12 12 12 12 12 12 11 9 8 7 7 6 5 4 4 3 3 2 1 1 1 2 3 3 3 4 5 6 6 6 5 5 4 4 5 4
3 1 4 2 2 5 5 2 1 3 3 4 7 9 9 8 11 11 11 14 13 12 15 16 14 11 11 10 10 11 18 28 30 29 29 27 27 26 26 26 25 26 27 26 26 25 22 21 20 20 19 18 17 16 16 16 15 14 14 13 12 11 12 12 12 13 12 10 8 7 6 5 5 3 3 2 2 1 0 0 1 1 2 3 3 3 4 5 7 8 7 7 6 5 6 6 6
5 1 4 2 2 4 6 2 1 3 2 4 7 9 7 7 11 11 11 13 11 12 15 16 13 10 10 10 9 11 22 32 29 29 30 28 28 27 26 26 25 25 25 25 25 24 22 21 20 20 19 18 17 16 16 16 15 13 13 12 10 10 10 11 12 12 11 9 7 6 5 5 4 2 2 1 1 2 2 2 2 1 1 2 2 2 3 5 7 9 9 9 8 7 8 7 7
5 3 4 1 3 2 6 3 2 3 2 4 9 9 8 9 11 11 10 10 10 12 12 12 11 11 11 9 14 21 29 34 30 30 30 29 29 27 26 26 26 25 24 24 24 23 22 21 21 20 20 18 18 16 16 15 14 12 12 11 10 10 10 10 10 10 10 8 8 7 6 5 4 4 3 3 4 4 4 4 4 4 3 1 0 1 3 5 8 9 9 8 8 8 10 8 7
4 4 4 3 5 3 7 5 2 3 4 6 9 9 10 10 9 9 10 11 11 11 10 11 12 14 13 13 23 29 32 35 31 30 28 27 28 25 24 25 26 25 24 25 24 23 22 21 21 21 20 19 17 15 15 14 13 12 11 10 9 10 9 10 10 9 9 8 9 8 7 7 6 6 5 5 5 5 6 7 6 5 3 1 1 2 3 5 6 7 7 6 6 8 9 7 7
5 4 4 5 4 5 7 8 6 5 7 6 7 10 10 10 9 7 8 9 10 10 12 14 14 15 17 22 28 30 33 33 29 28 25 23 23 20 20 22 23 23 24 25 24 23 21 20 20 21 20 18 16 15 14 14 14 13 13 11 10 10 10 9 9 9 9 10 11 10 10 8 8 9 7 6 7 7 8 6 5 4 2 1 0 1 1 3 5 5 4 3 4 4 5 4 5
4 2 3 2 5 10 8 7 5 5 9 7 7 10 10 10 10 7 7 7 7 11 14 16 18 18 19 23 25 28 30 27 25 25 22 20 19 18 19 19 20 21 22 24 24 23 22 20 18 19 18 16 15 15 15 15 14 14 14 12 11 10 10 9 9 10 10 11 11 11 11 10 10 10 9 9 8 8 8 6 5 4 2 2 1 1 0 3 4 3 2 1 2 2 2 2 4
4 2 2 2 10 13 12 9 5 6 9 9 8 9 9 8 8 6 8 8 7 11 13 16 18 17 17 18 21 24 24 23 23 21 20 19 18 19 21 19 20 21 21 22 23 23 22 19 17 17 17 15 15 16 16 16 15 15 13 12 11 11 10 10 10 11 11 11 12 12 12 12 11 11 11 11 8 7 8 7 6 4 2 2 1 1 1 2 4 3 1 2 2 2 1 2 3
2 2 3 7 10 11 15 15 8 6 8 10 9 9 8 5 5 7 10 8 8 11 14 16 18 18 17 16 19 21 21 21 20 20 20 19 19 20 21 22 22 22 22 22 21 23 21 18 18 18 17 15 15 16 17 15 16 16 13 11 11 12 10 10 11 11 12 11 11 11 12 14 14 13 12 11 8 7 7 7 7 5 4 4 2 1 3 3 4 3 3 3 3 3 3 3 3
1 1 7 9 9 9 13 15 10 8 10 11 9 8 7 6 7 8 10 7 5 11 15 17 18 17 17 15 16 18 18 17 16 18 19 19 19 20 21 22 22 23 25 23 21 22 21 19 19 19 17 14 13 15 17 15 15 16 14 13 13 14 12 11 12 13 13 12 10 10 12 16 16 14 13 11 9 8 7 7 6 4 3 4 3 3 4 5 5 5 5 5 4 5 5 5 4
1 3 10 11 11 10 9 11 10 9 12 11 9 10 8 8 7 7 9 4 5 15 18 18 16 17 19 16 14 15 15 13 14 17 17 17 19 20 21 21 20 23 25 23 22 21 21 20 20 20 17 15 14 15 17 15 15 16 15 16 16 17 15 13 15 16 16 15 13 12 13 17 17 15 13 12 11 10 8 7 5 2 3 6 5 5 6 6 6 6 7 7 7 5 6 5 4
5 2 7 11 11 11 8 9 9 8 13 12 11 11 9 9 6 5 7 5 11 19 18 17 17 18 19 14 12 14 14 13 17 17 16 18 20 21 21 20 18 19 23 23 22 21 20 20 19 19 16 15 16 15 17 16 17 18 16 18 18 17 18 17 17 17 16 17 17 15 15 16 18 16 14 13 13 11 9 7 5 3 5 6 6 6 7 6 6 6 7 8 9 7 6 7 7
6 3 5 9 10 10 9 9 12 12 12 12 12 11 10 10 6 6 9 9 16 18 17 18 17 16 14 11 11 12 11 12 17 18 17 18 20 22 21 19 18 15 19 22 21 21 20 18 17 17 16 15 16 15 15 15 17 18 17 17 17 16 17 18 18 16 14 15 16 16 15 16 18 16 14 12 11 10 8 8 7 7 6 6 7 6 5 5 6 7 9 9 11 12 10 10 11
5 8 5 6 11 11 10 11 14 13 9 10 12 11 11 10 7 8 9 12 16 17 17 16 15 14 12 11 10 10 9 9 14 15 17 18 18 23 21 19 21 17 16 18 20 20 20 20 17 16 15 14 15 14 13 13 13 15 15 15 16 16 16 16 17 15 13 14 15 16 15 15 16 15 12 10 9 8 9 9 9 9 9 8 8 6 5 5 5 6 8 10 13 14 13 13 13
5 9 5 5 10 9 10 14 15 13 11 11 11 11 11 9 6 6 7 11 14 16 16 15 14 13 12 11 11 11 10 11 15 15 16 17 17 22 21 17 19 19 18 17 19 18 18 18 16 16 15 14 14 12 12 12 11 12 13 13 14 15 15 14 14 14 13 13 14 15 15 16 16 14 12 10 9 9 10 10 10 10 10 8 8 6 8 8 6 6 7 10 12 14 14 15 14
6 8 7 6 8 8 12 16 15 12 11 12 12 11 11 9 6 6 8 10 12 14 15 14 13 11 11 13 11 9 9 13 19 16 14 16 17 20 21 19 18 18 19 18 18 17 16 15 14 16 15 14 14 13 12 12 12 11 11 12 12 12 13 13 12 13 12 11 12 12 13 15 15 13 12 10 10 10 10 11 11 11 9 8 9 9 11 11 9 8 9 11 11 13 15 14 13
8 7 7 5 6 9 12 13 14 12 10 13 12 9 8 8 9 9 9 10 11 12 12 12 12 10 10 12 10 8 9 15 19 16 15 17 19 20 20 21 19 19 18 17 20 17 14 15 15 17 16 14 14 14 13 12 12 12 11 10 11 11 10 10 10 10 8 8 10 10 10 12 13 12 11 11 10 10 10 11 12 12 11 11 12 13 13 12 10 11 13 14 12 13 15 14 13
9 6 5 4 4 6 11 12 15 13 11 16 10 5 6 8 11 12 10 11 11 11 10 10 10 9 10 11 10 8 9 13 15 16 20 19 19 21 20 19 19 19 19 18 19 16 15 17 17 17 16 15 14 14 13 12 11 11 11 10 10 10 8 7 5 5 6 7 8 10 11 11 11 11 11 11 10 10 10 11 11 12 13 14 15 14 14 13 13 14 16 16 13 12 13 13 13
7 6 4 5 3 4 10 11 13 11 11 17 10 4 6 8 11 12 11 12 12 10 10 9 9 9 10 10 9 7 7 13 16 17 24 24 20 21 20 19 18 18 21 20 17 16 16 16 17 16 15 14 14 14 13 12 11 11 10 10 10 8 7 7 6 8 9 9 9 10 11 12 11 11 11 11 11 10 11 12 12 12 13 14 15 15 15 14 15 16 16 15 13 12 11 10 12
4 5 3 3 3 4 9 8 9 9 10 14 9 5 6 8 11 12 11 12 12 10 10 10 10 10 10 9 9 7 7 14 19 19 25 26 23 23 22 20 19 18 21 20 17 17 16 15 18 17 15 15 15 14 14 12 12 11 9 9 9 7 8 10 10 11 11 11 10 10 11 12 12 11 11 11 11 12 12 12 12 12 13 15 16 16 15 14 14 14 15 13 13 14 12 11 13
2 5 3 3 5 4 6 7 8 10 8 8 11 7 5 8 10 12 12 12 12 11 10 11 11 11 11 9 9 8 7 11 14 18 25 26 24 25 23 22 22 20 21 21 19 19 17 17 17 16 16 17 16 15 15 13 12 10 9 8 8 8 9 11 12 11 11 11 10 9 10 11 11 11 11 10 10 11 10 9 10 11 12 13 13 13 12 12 12 13 14 13 13 14 14 14 15
2 4 3 3 5 4 5 7 9 12 8 6 12 9 7 9 11 11 12 12 11 10 11 12 11 11 10 9 9 8 8 8 8 14 23 23 22 25 23 22 23 22 21 20 21 21 19 18 17 16 16 16 16 16 15 13 11 10 10 9 10 11 10 11 11 12 11 10 10 9 9 10 10 10 9 10 10 10 9 9 9 9 9 9 9 10 10 10 10 12 14 15 13 13 14 16 17
6 6 4 2 2 4 6 5 8 13 9 6 8 9 11 11 11 10 11 12 10 9 9 10 10 10 10 10 9 8 8 8 8 14 20 19 20 23 22 21 22 23 22 20 21 20 20 20 19 18 17 15 14 15 14 13 11 10 11 11 12 13 12 11 12 13 12 12 11 9 9 8 8 8 9 10 11 11 11 11 8 7 8 8 9 10 11 10 10 10 13 15 14 14 15 16 18
13 11 7 6 5 6 7 6 8 11 8 7 7 10 13 12 11 11 10 11 11 9 8 7 7 9 9 8 9 9 8 7 10 17 20 19 20 21 21 21 21 22 22 21 20 19 20 19 18 19 17 14 13 13 14 14 14 12 12 13 13 13 13 13 12 12 12 11 10 10 9 7 7 8 11 11 11 12 12 12 10 8 9 9 10 11 11 10 10 10 11 12 14 15 17 18 17
16 14 10 11 9 8 10 9 9 10 7 7 10 13 14 12 11 11 11 10 11 11 9 8 8 8 8 8 9 10 8 8 14 20 20 20 21 20 20 20 21 21 21 22 21 19 19 17 17 17 15 14 13 15 16 16 16 15 14 15 15 14 13 12 12 12 11 9 9 10 9 8 8 8 9 9 9 10 10 11 12 11 10 10 12 14 14 11 10 10 11 11 12 14 18 19 17
12 12 10 10 9 9 13 12 10 11 7 6 11 14 13 12 11 11 10 10 12 13 11 10 10 8 7 8 10 10 8 9 13 16 19 22 22 21 21 21 22 22 22 22 21 20 19 17 17 16 15 15 15 16 16 16 16 15 14 14 13 12 11 9 8 7 7 8 10 10 9 8 7 7 7 6 8 8 8 9 11 11 11 13 14 15 14 12 12 12 12 12 12 13 17 18 17
8 7 8 8 8 8 12 14 12 11 5 6 12 12 10 12 12 11 11 9 10 13 13 12 12 10 8 8 9 10 9 9 11 12 17 21 21 22 23 22 23 23 23 23 22 21 20 18 17 16 16 17 18 16 14 13 13 12 11 11 10 10 8 5 3 3 4 5 7 7 8 9 6 4 4 5 6 6 6 7 8 9 10 11 13 13 12 11 13 14 14 14 13 14 15 17 17
8 6 5 6 10 9 8 11 13 12 6 8 13 9 8 10 9 10 12 10 8 12 15 14 13 12 11 9 9 10 10 11 12 11 14 18 20 22 22 23 23 23 25 26 24 23 21 19 18 19 19 18 17 15 12 11 11 9 8 9 10 8 6 5 4 3 3 4 5 5 4 4 2 1 2 4 6 7 7 7 8 9 10 11 12 12 11 12 12 13 14 13 12 13 14 16 17
7 9 6 6 12 12 10 11 13 10 6 10 12 5 4 8 8 8 9 10 9 11 14 14 13 13 13 11 10 12 11 11 13 12 12 15 18 21 23 24 24 25 27 27 26 25 22 20 20 21 20 16 13 12 11 11 10 8 8 10 10 8 8 7 5 3 2 1 1 3 5 4 1 2 4 5 8 9 8 8 9 10 11 12 13 13 13 14 13 12 13 12 12 13 13 15 19
6 9 8 5 6 5 11 15 12 7 5 10 12 5 3 6 9 9 7 9 9 9 12 13 14 14 13 12 12 13 13 12 14 13 12 15 18 21 23 24 24 25 27 27 26 25 22 21 20 19 18 15 13 12 11 11 9 8 7 7 7 7 6 6 4 4 3 4 3 3 4 4 3 5 7 8 9 10 9 10 10 11 12 13 13 13 13 13 13 13 12 13 13 13 13 14 17
5 6 8 6 5 4 8 16 11 6 5 9 14 7 3 5 8 9 7 7 9 9 11 13 13 14 13 12 12 13 14 13 13 13 13 15 17 20 21 24 25 25 26 27 26 25 24 23 21 19 17 16 15 13 11 11 11 9 7 6 7 6 7 5 3 2 2 4 4 5 5 6 7 9 10 10 9 9 9 9 10 10 12 12 12 12 12 13 13 13 11 11 11 11 11 11 14
6 6 6 5 7 9 11 16 9 6 6 8 13 9 4 5 8 8 8 7 6 7 9 10 12 15 15 13 13 14 15 15 13 13 14 15 18 21 22 25 27 26 26 28 27 27 26 24 23 20 18 17 17 15 14 13 11 9 7 7 7 6 7 6 2 0 3 5 5 5 6 8 8 8 9 8 8 8 8 8 9 9 11 12 11 11 12 12 12 12 10 9 9 10 10 10 12
7 7 6 6 9 10 9 13 7 6 7 6 8 8 4 3 6 6 7 8 8 9 10 9 10 15 15 13 13 15 16 16 15 15 14 16 20 24 25 27 29 28 29 30 29 28 27 26 24 22 20 20 19 17 15 13 11 10 8 8 7 7 6 6 4 1 1 3 3 4 5 5 5 5 6 7 7 7 7 8 8 8 10 11 10 10 10 10 11 12 11 10 10 11 10 9 12
6 8 7 6 7 7 3 7 5 4 5 5 7 9 4 2 5 6 6 7 10 11 10 8 8 12 14 14 14 15 15 15 15 16 15 18 24 27 28 28 29 29 30 31 31 30 29 28 26 24 23 23 19 16 15 13 11 10 9 8 8 8 6 5 3 1 2 3 2 3 3 2 2 4 5 4 6 7 7 7 8 9 10 10 10 10 10 9 10 10 11 10 11 12 11 11 11
4 7 7 7 6 2 2 4 5 4 1 6 6 7 6 3 5 8 8 12 15 12 10 9 9 12 14 14 14 14 14 14 15 14 15 21 26 28 29 28 29 30 31 32 32 31 31 30 28 27 25 23 21 18 16 15 12 10 11 10 9 10 9 8 7 5 5 5 3 3 3 2 3 5 5 5 5 5 5 6 9 10 9 9 10 10 10 10 10 10 11 11 11 12 11 10 10
6 6 4 3 4 3 4 3 4 3 4 6 3 4 5 4 5 10 14 17 18 14 13 14 14 14 15 14 13 13 14 14 15 14 13 18 21 24 28 28 28 31 31 32 32 32 32 31 30 29 26 24 22 20 17 15 13 12 12 11 11 12 10 8 7 6 6 6 5 4 3 1 3 3 3 4 3 2 4 6 8 9 8 9 10 10 10 10 10 10 11 11 12 12 11 10 8
6 6 2 3 1 2 2 3 2 1 5 5 3 6 7 5 7 16 20 17 18 17 15 16 15 13 12 11 11 12 13 15 15 14 14 15 15 19 25 27 27 30 32 33 34 33 32 33 32 30 27 25 23 21 19 17 15 15 14 12 12 12 9 8 8 7 6 6 6 5 3 2 1 1 2 3 1 2 5 6 6 7 7 9 9 9 10 10 9 9 10 11 12 11 11 10 7
5 5 3 4 3 1 1 1 0 3 5 6 8 8 6 5 5 17 23 19 18 17 14 15 16 14 12 11 12 11 14 16 14 14 15 15 15 19 25 27 25 28 32 34 34 33 33 33 33 31 29 26 24 22 21 19 18 17 15 14 12 10 9 9 9 8 8 7 7 6 5 5 4 3 3 2 2 4 5 5 5 6 7 8 8 8 10 10 9 9 9 10 11 11 10 9 6
6 7 5 4 4 3 3 3 3 5 5 7 11 7 4 6 5 12 21 17 13 14 13 14 14 13 12 11 12 11 12 14 13 13 15 15 18 23 26 27 27 29 32 33 33 34 34 33 33 32 30 28 26 24 22 21 20 19 16 15 13 11 10 10 9 9 9 7 7 7 7 6 6 5 5 4 4 4 4 5 6 7 8 8 9 9 10 10 11 11 10 10 10 10 9 8 5
5 7 7 5 5 4 3 4 5 5 5 4 6 4 4 5 4 6 15 14 13 15 14 13 12 12 11 9 11 11 10 12 12 13 13 15 20 25 27 28 28 31 32 32 33 35 35 33 33 32 31 29 27 25 25 23 22 21 18 16 14 13 12 10 10 11 9 8 9 8 8 7 6 6 6 5 4 4 4 6 7 8 9 9 10 11 11 12 12 12 11 11 11 10 9 8 6
4 6 6 5 5 4 4 5 5 4 5 3 3 3 1 0 3 4 15 16 15 15 13 13 14 14 13 10 10 11 11 12 13 13 13 15 19 24 28 30 29 31 33 32 34 37 37 36 34 33 32 31 28 26 26 25 23 22 20 17 16 15 14 11 11 12 10 10 10 9 8 7 7 6 6 5 4 5 6 7 8 8 8 10 11 12 13 13 12 12 12 12 12 11 10 10 9
4 5 6 3 5 4 4 1 3 4 4 3 4 6 4 3 1 5 14 17 15 14 14 15 15 13 13 10 8 11 13 12 14 15 15 16 19 23 28 31 32 34 35 33 35 38 39 38 37 35 34 32 30 28 27 26 26 24 21 19 17 16 15 11 11 12 12 12 11 9 8 7 7 6 6 6 6 7 7 8 9 9 9 10 11 12 13 14 13 12 13 14 13 11 11 11 10
6 6 8 8 4 5 3 1 2 4 3 3 4 4 3 4 5 8 12 15 14 12 12 15 14 12 12 11 10 12 13 13 13 15 14 14 18 22 27 30 32 35 35 34 36 37 37 38 38 37 36 33 31 29 27 26 26 25 23 21 18 16 15 12 12 13 13 12 10 10 10 9 8 7 7 6 6 7 8 9 10 11 11 11 11 12 13 14 14 14 14 15 14 13 13 11 9
6 4 4 7 5 3 4 4 4 4 3 2 3 3 2 3 7 12 11 12 13 10 9 11 12 11 12 13 11 10 11 11 12 14 15 15 18 24 29 30 33 35 33 33 36 35 35 37 37 37 36 34 32 30 28 27 26 25 23 21 19 18 16 15 14 14 13 13 11 10 10 10 9 9 8 8 8 9 10 11 11 12 12 12 12 13 14 15 15 16 16 16 14 14 14 12 11
5 4 4 5 4 3 2 3 3 5 3 2 2 2 4 5 5 11 11 11 12 10 9 9 8 8 9 11 11 9 8 8 10 12 12 13 16 21 28 30 32 33 31 31 34 34 34 35 36 36 36 35 33 31 29 27 26 24 22 21 20 20 18 17 15 15 14 14 12 11 12 12 12 11 10 10 10 11 11 11 11 12 12 12 13 15 16 16 17 17 16 15 14 14 14 13 13
5 4 4 5 5 5 3 4 3 3 4 4 4 1 4 5 2 7 9 11 11 10 10 8 7 7 7 9 10 10 9 8 9 11 12 12 13 18 23 26 28 29 28 28 31 32 33 34 35 35 36 34 33 31 30 28 25 23 23 22 21 20 19 17 17 16 16 15 13 13 14 14 13 11 10 11 11 12 12 11 11 12 12 12 14 15 16 17 17 17 17 16 14 13 13 14 14
Wind_Direction
185 183 189 189 174 158 175 191 353 212 187 66 86 79 100 113 123 106 91 95 87 82 81 78 70 71 88 93 97 62 34 66 95 99 107 137 148 142 135 138 134 128 125 122 123 120 119 120 118 117 119 119 119 119 117 115 112 111 112 112 112 113 114 113 114 116 118 122 123 123 122 123 122 121 119 116 116 118 116 112 107 102 98 98 96 91 86 82 81 81 79 75 73 71 69 71 69
193 190 190 188 176 167 174 156 297 250 128 64 72 70 84 95 95 94 100 110 96 100 99 98 88 84 93 92 83 66 41 40 81 81 100 132 139 141 141 141 138 133 130 127 126 125 122 120 119 119 122 122 121 118 116 115 113 113 114 114 115 115 115 115 115 116 118 121 122 122 121 121 120 119 117 115 115 115 113 110 107 105 103 101 97 94 90 86 84 79 74 69 67 67 63 60 59
207 206 191 180 182 197 44 62 244 81 86 76 83 84 93 94 92 97 113 121 102 102 105 98 90 86 85 72 65 79 74 53 88 94 114 137 139 145 146 143 139 133 131 131 129 127 121 117 117 119 122 122 120 118 117 117 116 117 117 117 118 117 117 117 118 119 120 121 120 121 120 119 117 116 115 114 114 111 111 111 110 109 106 104 101 99 95 90 84 76 71 67 64 62 60 55 49
233 218 195 180 180 215 161 123 219 85 85 94 92 97 100 98 99 101 102 103 97 95 93 90 88 88 84 88 89 90 98 85 103 112 128 142 140 143 144 141 137 132 130 130 129 126 120 119 119 121 122 121 119 119 119 120 120 120 119 119 119 120 119 118 119 119 121 120 119 119 119 117 113 111 109 110 109 110 112 112 111 110 108 105 102 98 93 87 79 73 67 62 56 49 50 49 43
243 230 214 201 166 175 172 210 185 85 90 101 99 103 104 104 102 100 94 88 90 88 85 87 91 95 86 96 111 97 112 117 118 119 122 132 137 142 141 139 134 130 129 127 128 125 123 123 124 126 125 123 121 120 120 123 124 122 121 120 119 119 119 118 118 119 121 120 120 119 116 114 111 109 106 106 107 109 110 110 111 109 107 103 100 95 87 80 74 70 64 58 50 38 33 32 31
225 230 228 217 198 73 78 23 88 92 103 93 92 91 95 100 98 96 89 80 78 80 83 84 90 97 89 91 98 114 132 125 122 124 124 129 137 140 137 137 131 129 131 129 128 125 126 127 127 130 128 125 123 122 122 123 124 123 120 119 121 120 119 120 120 119 120 121 122 120 116 112 110 108 107 106 106 108 109 109 109 106 104 100 96 92 85 76 69 65 61 57 50 39 25 16 16
223 218 205 203 301 56 31 87 90 95 105 100 107 106 102 101 102 100 94 89 87 90 93 92 97 98 92 104 100 108 122 123 126 131 131 133 138 137 134 134 130 130 133 134 132 128 130 130 133 134 130 127 125 124 122 122 122 120 119 119 122 121 120 121 121 120 119 119 118 116 113 110 108 108 107 108 108 109 109 109 109 107 104 99 93 86 79 69 61 56 53 52 46 37 22 9 5
227 198 148 106 18 251 60 65 73 69 102 108 111 112 115 115 117 113 110 106 100 101 99 98 101 93 86 99 103 109 117 121 127 131 134 137 140 137 135 133 131 133 137 139 137 134 134 134 136 135 132 129 127 126 123 123 124 121 120 120 120 120 120 121 121 119 117 116 111 109 108 107 108 107 107 109 113 114 113 114 112 108 100 93 84 73 65 58 53 53 51 48 39 26 22 13 360
217 181 17 73 33 44 59 58 85 89 91 96 94 97 105 110 109 108 110 105 105 106 101 102 99 96 95 96 99 109 115 121 126 129 133 137 140 139 136 135 135 139 140 141 141 139 138 138 137 135 134 131 131 130 127 127 128 126 122 120 119 118 118 119 119 115 114 114 110 107 107 108 109 111 113 116 121 121 117 112 104 94 80 69 56 47 41 42 41 45 44 38 39 28 21 9 355
187 129 75 83 47 65 66 356 95 110 101 101 100 102 101 99 96 97 101 100 105 103 98 99 96 104 108 102 103 114 121 127 128 129 133 136 139 140 138 137 139 142 142 143 143 141 140 140 138 137 136 136 135 134 132 130 131 129 125 122 119 117 116 115 117 113 111 111 112 112 112 114 118 122 126 130 129 122 112 100 90 71 54 39 31 26 17 23 22 19 18 13 21 16 8 359 349
26 354 112 64 43 68 86 52 81 95 99 102 92 84 82 84 87 88 93 92 96 102 108 110 106 110 109 105 108 124 129 132 132 135 138 137 138 140 137 136 139 141 142 143 143 141 141 141 140 140 140 140 139 138 136 133 133 131 127 124 120 119 116 116 118 115 113 113 118 121 121 123 128 135 138 139 133 124 112 95 79 54 31 17 14 4 350 354 348 338 339 338 345 345 349 350 346
51 327 60 66 73 77 41 53 79 97 97 95 92 90 94 96 96 101 105 111 117 117 117 115 111 110 108 107 119 134 136 137 138 140 141 138 137 138 136 135 138 142 143 143 142 142 142 142 142 143 144 143 143 142 138 135 135 132 130 128 126 125 120 121 123 121 121 121 124 126 129 133 137 144 144 139 132 125 112 93 71 29 354 347 333 325 323 325 326 323 327 326 325 329 327 321 319
112 271 82 90 146 103 59 14 348 83 90 94 111 118 115 112 116 125 128 125 120 113 112 113 117 116 113 115 131 140 140 140 140 141 141 138 137 137 137 135 138 142 143 143 142 143 143 142 144 146 147 146 146 143 139 139 138 135 135 134 134 132 128 130 128 125 125 126 131 133 135 140 141 139 134 128 124 124 108 99 26 350 346 344 329 321 316 317 320 316 315 308 304 306 293 284 287
163 185 111 110 218 135 123 201 274 70 86 103 111 115 114 120 130 132 123 111 103 113 122 122 123 114 114 126 134 137 138 141 142 142 141 137 137 137 137 138 139 142 145 145 145 145 144 144 146 147 149 149 148 144 142 142 140 140 141 140 140 138 138 140 137 131 129 134 141 140 140 141 136 129 131 127 104 92 55 308 314 344 3 359 343 319 303 306 302 295 295 288 284 279 273 275 289
175 140 101 78 265 151 129 150 105 86 117 121 104 106 110 115 121 109 101 105 108 123 120 121 129 119 131 146 135 133 138 141 141 139 138 137 138 136 137 140 141 144 148 150 149 148 148 150 149 150 152 151 150 148 147 148 147 148 147 145 145 146 146 147 145 141 140 148 152 152 155 152 152 168 178 202 257 276 277 273 286 285 339 11 354 311 294 292 283 286 292 290 290 290 288 287 295
189 129 96 99 252 155 119 121 108 120 160 121 107 105 101 94 97 96 108 118 120 132 128 135 143 128 142 145 127 134 136 137 138 137 136 137 138 137 140 143 144 146 150 155 153 152 154 155 154 155 156 153 153 155 153 152 154 155 150 149 151 154 153 153 155 152 154 160 164 168 177 178 184 203 210 230 241 246 245 232 231 235 235 191 143 272 271 278 279 286 292 293 296 292 289 290 295
217 141 112 180 214 152 129 134 139 140 124 113 111 105 99 93 89 101 126 131 134 141 127 130 136 129 135 126 126 132 130 133 136 136 134 133 137 139 141 143 146 147 151 156 154 154 159 159 158 158 159 157 159 160 157 155 158 157 150 151 157 155 154 160 163 164 171 177 180 179 185 193 200 208 212 227 234 229 226 216 210 221 221 192 203 253 268 283 288 292 293 297 297 285 286 295 296
225 162 142 197 191 154 145 140 162 156 123 122 123 112 110 108 111 133 139 133 140 129 109 117 123 116 115 118 127 126 124 132 136 135 133 132 139 139 138 142 147 148 152 156 156 156 161 162 162 161 162 161 162 162 158 158 161 161 158 159 163 161 161 169 172 176 184 187 191 189 192 202 203 208 215 223 231 226 224 219 221 233 201 127 158 192 299 310 305 308 310 315 306 293 306 313 292
220 173 154 198 119 135 139 123 145 137 122 130 126 117 120 127 139 158 139 125 130 113 103 107 107 108 114 120 125 122 124 130 135 135 132 135 141 137 136 141 144 148 151 155 160 161 161 164 166 166 164 161 161 162 160 161 166 168 168 168 170 172 172 180 188 190 192 193 195 192 196 205 206 214 220 223 234 226 218 215 219 224 174 136 147 152 347 315 310 318 328 324 312 303 331 327 296
206 196 176 124 103 125 130 121 132 135 133 125 108 101 106 128 149 153 124 112 106 105 108 110 114 122 126 124 126 129 129 131 138 137 131 137 140 138 142 144 146 151 150 151 162 165 161 163 167 169 167 164 165 168 167 164 169 177 177 176 181 185 182 186 195 198 199 196 196 195 193 203 213 221 222 222 229 225 227 219 207 217 233 229 189 220 281 291 300 300 266 254 276 286 291 304 295
205 211 150 127 111 120 131 137 151 143 119 106 103 93 86 87 103 118 116 106 97 108 120 124 128 131 130 131 136 139 134 137 146 139 135 144 145 144 147 147 149 155 152 148 158 166 164 162 167 173 171 166 165 168 173 169 169 180 185 190 196 198 196 195 197 203 207 201 203 200 193 206 217 219 220 221 219 224 234 216 212 246 265 249 231 293 295 293 296 288 278 271 283 308 315 297 280
262 45 84 99 100 96 116 132 142 132 111 114 126 108 87 72 69 86 103 116 137 127 126 128 130 132 133 137 142 136 132 143 148 138 145 154 149 146 145 147 148 149 150 148 155 163 166 165 165 173 173 168 164 162 171 173 173 182 187 195 207 211 211 210 209 213 216 213 213 206 201 211 215 214 218 218 210 208 210 201 221 256 258 260 267 298 301 295 293 295 299 300 307 318 320 312 295
76 72 88 93 97 98 112 126 136 139 122 120 117 99 91 90 81 78 86 85 131 126 125 127 128 131 134 141 145 135 137 152 142 142 154 147 140 138 137 144 146 145 147 149 153 157 164 167 164 169 170 167 165 162 171 179 181 186 190 196 207 213 214 215 219 223 224 221 219 213 208 212 215 217 218 213 206 197 199 207 220 237 297 303 293 291 293 294 296 306 313 314 319 320 316 318 310
116 123 115 116 115 122 133 126 119 113 109 110 107 105 107 104 98 101 103 82 102 116 122 124 127 131 135 146 150 140 147 152 138 148 154 138 137 138 136 140 144 146 144 146 153 155 159 162 161 165 165 164 165 164 173 182 186 190 196 199 203 209 210 213 220 222 222 220 216 211 208 216 222 221 215 210 205 198 205 222 235 272 319 318 296 279 276 292 309 318 322 320 322 324 319 319 320
114 99 103 115 113 116 118 110 100 93 96 104 110 113 112 113 109 100 110 103 103 114 121 125 130 133 138 147 144 134 141 140 137 151 153 147 149 143 142 145 146 146 140 145 154 155 155 157 158 162 163 165 167 168 175 182 188 195 200 203 206 209 212 213 217 219 218 215 211 205 203 217 221 215 213 211 205 206 219 237 255 275 300 309 294 279 271 299 324 329 327 325 324 325 323 317 315
102 94 86 107 112 122 128 113 101 96 92 94 101 107 108 118 119 96 97 105 110 117 123 130 133 135 144 143 131 123 133 140 141 152 152 155 150 139 146 151 150 153 147 149 152 152 157 159 159 163 166 167 168 173 181 185 190 197 201 209 212 210 214 215 214 215 212 209 206 199 197 211 218 219 227 223 219 232 247 257 265 275 292 300 287 271 260 280 311 320 319 323 322 321 321 318 312
106 108 125 129 129 144 130 108 101 99 98 101 104 111 114 118 115 104 110 113 118 123 128 136 135 140 148 136 126 133 154 156 151 159 155 155 146 137 148 153 151 155 154 153 150 154 165 166 166 166 166 169 172 176 184 192 195 196 203 211 211 209 214 212 208 208 205 202 202 200 198 208 221 231 241 241 246 259 265 269 272 281 293 296 285 256 233 246 277 294 305 317 316 316 320 319 315
127 128 132 140 146 133 112 107 110 108 111 125 127 127 126 118 112 118 121 116 121 127 134 140 137 144 145 133 134 146 165 154 152 165 160 155 153 148 153 157 157 156 156 157 154 160 169 171 175 169 169 176 179 180 188 198 200 205 213 214 217 219 214 207 205 204 203 201 201 207 206 211 225 238 249 254 261 269 269 269 267 272 280 276 275 261 242 250 275 293 309 320 318 315 317 317 319
120 130 123 155 164 125 123 122 124 126 133 142 136 124 119 117 126 129 120 118 126 131 137 141 139 142 137 135 143 159 170 154 157 170 164 160 161 159 157 158 164 160 159 162 157 160 166 170 173 172 180 188 185 186 194 200 200 208 216 222 234 234 221 212 208 204 212 218 215 226 227 223 233 245 260 267 267 267 264 263 261 265 270 266 267 268 266 270 280 296 309 315 314 309 309 311 310
110 131 126 164 186 139 134 127 135 141 140 147 143 112 113 123 136 140 136 137 140 140 144 145 145 143 136 141 153 172 169 157 167 170 166 170 165 164 163 160 168 165 163 166 158 158 164 169 173 175 186 194 191 192 195 201 206 211 214 225 241 246 249 243 228 227 239 239 228 235 239 235 241 252 265 270 272 276 272 271 269 268 273 275 274 272 275 278 282 295 305 310 311 307 304 302 297
121 147 150 154 186 158 129 130 150 146 150 159 145 103 132 139 143 146 148 151 149 148 150 150 149 140 137 146 158 176 166 161 176 170 166 174 168 165 170 167 171 169 164 164 159 164 169 171 176 182 189 195 198 194 192 202 216 221 220 222 228 234 244 240 233 232 232 231 224 225 233 237 243 255 267 275 281 284 279 276 273 272 276 282 282 276 277 280 284 295 303 313 323 320 313 305 300
129 141 175 155 166 165 124 138 157 136 167 170 128 105 146 145 151 151 152 158 153 152 155 156 154 146 144 153 162 178 171 166 177 170 163 171 170 169 175 173 173 172 165 162 161 169 177 177 180 186 188 194 203 196 192 203 215 222 224 223 219 209 212 217 220 225 228 230 224 220 228 236 246 259 269 277 282 283 278 272 273 274 276 281 284 283 284 285 291 302 310 323 330 327 323 312 307
137 131 179 175 170 170 126 155 153 132 176 164 119 128 152 149 159 156 160 165 156 157 164 161 159 156 155 160 169 177 171 170 179 167 161 168 173 171 173 173 174 174 166 163 169 173 177 179 181 186 188 198 207 198 195 204 211 216 219 220 217 214 219 223 226 229 232 234 231 230 234 239 249 258 267 277 283 285 283 283 287 287 283 282 283 286 291 294 301 312 320 327 327 324 321 313 310
148 132 190 184 166 158 148 178 156 145 183 157 127 136 144 151 160 161 166 165 157 165 169 165 165 162 161 164 170 171 168 175 177 160 159 167 170 167 169 171 172 170 161 164 175 177 179 180 180 186 193 203 206 200 198 202 209 213 217 222 223 229 236 238 243 243 243 246 243 241 242 245 251 258 273 288 293 292 292 297 298 294 288 282 282 293 304 308 313 320 322 324 324 320 315 311 309
145 159 202 164 166 171 165 184 160 158 175 150 132 135 137 148 157 163 170 161 160 173 168 165 165 159 162 163 163 169 170 175 165 151 153 155 157 159 165 167 165 162 158 163 174 177 179 180 181 188 196 203 204 201 198 198 205 209 216 225 232 238 243 247 254 255 256 260 251 240 239 245 253 269 288 298 301 300 297 299 297 287 288 288 286 296 307 311 313 316 318 322 323 318 312 307 306
156 169 187 170 186 192 176 193 178 162 151 144 145 133 139 154 160 165 177 167 160 169 166 161 159 155 162 160 160 171 169 164 155 149 149 150 153 157 162 163 159 159 161 165 169 172 175 177 185 193 198 204 204 202 200 200 203 206 216 226 234 240 245 251 254 252 255 261 257 247 241 246 257 277 293 301 305 304 300 301 296 276 275 285 284 285 293 299 301 302 307 314 317 316 312 308 307
167 172 185 181 185 186 183 196 183 157 141 153 149 137 146 159 163 170 183 175 160 165 169 163 160 159 164 162 165 173 165 155 153 151 152 154 157 161 162 163 161 161 168 173 174 174 177 183 192 195 196 201 204 204 204 204 204 205 213 223 231 238 244 253 256 255 256 256 257 257 255 257 263 277 294 305 310 312 312 309 300 281 267 274 282 283 284 286 292 296 297 300 304 307 309 310 310
186 179 184 184 188 187 182 187 175 156 156 157 141 138 151 159 166 176 183 182 167 166 169 164 166 166 168 171 168 166 159 152 152 152 155 157 161 165 164 166 170 169 171 177 181 182 186 192 194 193 194 198 203 205 202 203 207 210 217 222 230 241 246 252 257 254 250 243 242 252 260 256 262 283 298 308 311 311 314 310 303 297 284 279 282 281 279 288 297 293 289 291 294 295 299 305 308
237 197 184 183 192 189 182 184 167 153 162 154 142 141 152 162 169 174 184 194 175 167 168 164 167 167 171 179 165 160 163 159 156 155 157 161 164 165 165 169 174 175 174 178 182 183 185 187 189 191 192 191 193 197 199 205 216 224 228 225 227 238 236 222 216 214 222 238 238 246 254 249 257 295 311 325 328 325 324 322 322 323 312 303 299 287 284 303 304 291 285 285 287 289 291 299 304
258 236 201 180 189 186 183 181 159 155 168 147 143 138 145 161 171 176 185 195 179 168 168 164 167 168 173 180 165 162 170 163 160 160 160 165 167 166 168 172 175 175 174 176 179 179 179 180 183 184 181 180 187 197 206 217 228 233 227 221 225 233 221 198 197 214 240 259 254 255 251 239 246 320 349 357 351 347 347 343 342 342 336 334 334 323 316 324 315 297 291 289 288 287 288 297 302
256 254 240 180 186 184 165 160 152 153 161 140 131 114 145 168 177 186 189 188 179 167 166 167 169 168 172 176 169 168 170 163 165 168 164 166 168 168 172 176 176 173 171 173 174 173 174 177 179 180 181 184 192 200 203 211 221 222 221 224 229 232 221 209 193 162 128 111 137 89 82 88 72 348 338 344 344 343 345 344 342 342 341 342 347 345 338 337 331 316 306 303 303 296 293 298 299
272 263 258 215 197 181 140 145 145 145 179 156 133 111 238 200 184 188 193 187 183 169 168 172 169 168 173 176 174 172 168 165 169 171 168 168 170 170 175 178 174 170 172 174 173 172 173 178 181 182 187 190 191 193 195 203 204 192 196 205 206 203 187 173 149 124 89 63 66 59 53 42 14 351 336 334 341 346 347 347 349 349 349 350 350 346 344 345 343 335 322 314 313 309 303 298 296
266 251 255 266 289 303 149 154 154 155 195 174 150 148 223 217 201 194 182 179 185 181 178 175 169 171 175 176 175 170 167 168 171 172 170 170 171 170 174 177 174 171 174 175 173 174 175 179 184 184 184 184 186 188 185 183 180 167 163 159 149 138 125 117 100 99 317 324 324 315 325 333 332 329 326 326 336 345 349 352 355 357 357 358 357 354 353 351 348 347 341 332 330 325 311 295 294
253 234 218 232 266 267 186 170 172 163 181 188 167 149 125 196 213 191 161 166 192 202 196 183 173 175 178 178 173 167 167 170 170 172 173 172 174 176 175 174 175 176 175 174 174 176 177 179 182 180 177 181 183 181 175 171 167 162 162 155 141 126 118 113 102 339 272 280 291 300 312 319 318 320 326 331 334 338 345 349 349 353 357 359 2 2 1 357 353 353 352 351 351 342 324 302 296
238 238 215 209 228 247 201 173 184 167 170 206 179 136 98 215 212 173 158 178 203 214 212 202 184 178 178 178 174 167 166 171 171 172 176 174 174 177 176 172 174 177 175 175 175 177 178 178 178 176 174 175 173 171 174 173 170 168 165 160 158 151 134 122 115 80 166 207 264 301 308 310 315 322 328 329 327 329 334 335 337 343 347 350 355 357 358 358 358 359 358 355 348 341 332 319 302
236 255 266 267 233 242 217 165 170 143 161 219 197 161 153 230 202 174 167 195 209 209 208 209 193 182 179 179 178 169 165 170 172 173 176 175 173 175 176 173 174 177 176 176 176 177 177 176 176 176 172 171 170 172 175 173 174 180 174 170 173 173 177 179 180 203 191 197 269 288 267 262 293 315 322 321 319 326 327 327 337 342 340 342 347 348 349 349 350 350 349 346 343 337 334 328 310
219 255 261 276 274 292 60 129 118 87 200 236 218 189 180 186 196 184 183 200 203 197 196 203 199 188 182 181 179 169 166 170 173 174 173 172 172 171 172 175 175 175 175 174 175 175 175 175 177 174 170 169 170 174 175 174 178 182 178 178 177 170 174 183 188 203 208 212 230 215 204 220 272 303 327 329 314 323 338 339 343 344 341 341 344 347 349 348 345 342 341 339 339 338 338 337 325
200 234 227 245 300 352 22 9 59 89 246 242 244 244 212 196 201 199 204 203 193 187 192 198 200 193 184 181 177 168 166 170 173 174 170 168 170 169 170 175 175 173 173 173 175 175 173 174 174 170 168 169 171 173 175 175 177 177 176 179 176 166 163 170 178 184 185 185 186 175 169 254 278 269 304 323 316 335 351 342 340 341 342 341 343 349 350 347 344 343 343 339 335 336 340 343 340
204 222 189 133 278 343 11 342 13 210 251 250 265 268 242 224 196 195 205 206 192 188 190 192 196 192 183 181 178 170 168 172 172 172 171 168 168 169 171 175 174 171 172 173 174 174 173 174 172 168 168 171 173 175 175 175 176 176 176 178 178 174 175 183 186 191 196 198 198 189 192 246 264 213 270 327 6 350 332 329 332 333 335 335 337 341 339 338 339 337 335 330 327 329 329 330 330
202 205 174 136 143 124 161 183 223 257 275 266 255 261 256 260 215 190 198 201 190 184 182 188 194 189 185 187 184 175 171 173 172 169 171 171 169 170 172 174 174 172 173 172 172 173 173 172 172 170 169 172 173 175 176 176 178 178 176 178 182 181 185 189 189 191 190 189 196 198 209 230 238 241 273 320 326 320 320 314 320 325 324 325 325 324 322 321 321 319 316 315 316 318 316 316 317
201 196 181 163 156 159 177 160 168 226 255 250 240 238 223 245 249 193 191 190 172 171 182 187 191 192 190 191 188 178 170 172 174 171 170 170 169 170 172 173 173 174 174 173 171 173 173 171 172 170 169 172 175 177 179 178 178 178 176 179 182 181 184 187 191 192 187 186 195 197 203 218 228 241 261 283 288 292 294 293 305 314 313 313 312 309 307 308 308 306 305 306 308 308 304 303 299
203 184 182 193 186 170 191 190 178 207 237 239 230 222 196 225 268 172 167 163 158 173 185 180 183 197 194 188 190 184 173 170 174 174 169 168 168 168 172 175 173 174 176 175 173 173 172 171 172 171 171 175 177 179 181 180 179 179 178 181 183 182 187 192 196 203 205 198 196 201 212 221 225 236 248 256 260 255 262 284 300 305 307 309 308 306 305 306 305 302 299 301 304 299 291 290 286
185 167 178 207 216 178 164 202 204 210 236 241 232 249 242 75 348 126 144 153 169 175 178 177 183 194 193 187 187 187 182 171 173 178 169 167 170 169 174 177 175 175 177 177 176 174 173 172 173 172 173 177 179 180 182 182 180 180 181 185 185 184 189 194 203 213 209 189 188 204 218 222 225 232 240 240 247 259 265 282 292 293 298 302 304 306 309 310 306 297 292 295 299 293 285 283 282
172 168 169 178 259 235 138 146 222 203 221 232 222 235 223 149 151 161 149 157 176 177 175 184 188 188 189 190 183 184 187 174 170 176 171 169 174 173 176 179 178 177 178 179 176 175 174 174 174 174 174 177 180 182 184 186 184 182 181 182 184 188 193 198 207 213 205 192 198 217 222 225 229 231 241 249 260 269 271 278 284 286 291 295 301 306 309 311 307 297 291 291 292 289 286 281 278
188 173 166 157 225 241 162 129 197 177 199 251 259 251 224 173 156 166 165 165 174 174 171 177 181 179 184 192 191 184 183 175 169 173 172 172 176 176 176 178 179 177 177 177 176 174 174 175 176 176 177 179 181 183 186 188 187 184 181 181 184 190 197 198 200 205 204 204 215 227 225 228 234 238 250 261 266 270 273 277 280 284 288 292 298 301 303 308 308 304 300 295 289 286 286 279 277
199 180 175 169 190 201 176 192 178 160 180 223 274 297 273 227 167 163 170 164 161 157 148 156 165 172 177 182 188 185 177 174 172 174 174 174 178 178 177 178 179 176 174 173 173 173 174 174 175 176 177 180 181 183 186 187 186 183 182 185 188 191 195 196 199 204 208 212 220 222 222 227 235 239 244 250 257 263 269 274 278 283 289 294 297 298 300 301 303 304 305 300 292 288 285 274 276
193 196 189 180 194 172 158 234 187 154 154 170 224 278 282 265 178 156 154 146 147 144 135 141 152 166 177 175 175 177 170 165 169 172 171 172 176 178 178 180 179 174 170 168 171 173 174 175 175 175 177 179 180 183 186 186 185 184 183 185 188 191 194 196 199 206 210 215 220 221 224 233 238 241 244 248 254 261 267 271 275 280 286 293 295 296 298 298 298 299 300 300 297 292 286 277 279
175 184 193 178 180 157 148 278 256 162 153 171 176 187 276 273 163 135 142 141 142 140 134 146 163 163 166 167 168 171 170 165 161 159 157 162 172 176 180 181 178 175 172 169 170 173 175 176 176 176 177 178 179 182 185 184 183 186 186 184 186 191 193 195 199 205 210 215 220 223 228 235 239 242 245 247 254 262 265 264 268 274 280 288 292 294 295 295 294 294 295 298 294 287 284 281 282